STARLINK-1891 (47174 NORAD) Tracking and Keplerian Element Data

This shows tracking and keplerian element data for the satellite.

Feedback or suggestion? Click here.




ElementValue
Catalog47174
NameSTARLINK-1891
Epoch Orbit175
Epoch Day59.91667824
Epoch Year2021
RAAN258.2319
Inclination53.0547
Eccentricity0.0002135
Argument of Perigee88.6905
Mean Anonmoly11.1948
Mean Motion15.06406045
Decay Rate0.000169
L11 47174U 20088BE 21059.91667824 .00016900 00000-0 11505-2 0 9991
L22 47174 53.0547 258.2319 0002135 88.6905 11.1948 15.06406045 1754

Live tracking and technical data element details for STARLINK-1891 (NORAD 47174). STARLINK-1891 can be tracked NOW for your location showing map with azimuth and elevation plus other details from your city location.

Track the satellite on the map from your city or location and see movement details for azimuth, elevation, latitude, longitude, range, height, and movement on the map or in text.







IsCatalogInMostPopularTable: catalog: 47174, numindb: 40
Update: records affected: 1



GetName: 47174 STARLINK-1891

Hit Count: updated at: Mon, 01 Mar 2021 23:03:47 GMT